Showing default

ORBCOMM FM 119, 41180

Orbit data source: Space-Track

ORBCOMM FM 119, 41180 is a payload satellite owned by Orbcomm (US) in LEO that was launched on Tue, 22 Dec 2015 UTC via an FALCON 9 launch vehicle from the Air Force Eastern Test Range (AFETR). Payload-class satellites include a variety of spacecraft equipped with specific instruments for various scientific and technological missions. These include communications satellites like Starlink; space stations such as the ISS; scientific satellites like the Hubble; Earth observation satellites from companies like Planet Labs, Umbra, and HawkEye 360; GPS; miniature CubeSats for education and research; and military/defense satellites.

Loading next visibility...
Identifier
41180, 2015-081B
Orbit
LEO
Last TLE update
22 hours ago
Origin
Manufacturer
SNC Louisville
Mission
Non-operational Commercial Communications
Bus & Motor
SN-100A, Unknown motor
Mass
172 kg wet, 158 kg dry
Launch date (UTC)
2015-12-22 (10 years ago)
Launch vehicle
FALCON 9
Launch site
Air Force Eastern Test Range (AFETR)
Object type
Payload
Rocket body
Debris
Shape & HBR
Box + 1 Pan + 1 Ant, 13 m
Radar Cross Section
2.222 m², Medium (>0.1 m² and < 1m²)

Expand to show TLE details & history

TLE from 22 hours ago
0 ORBCOMM FM 119
1 41180U 15081B   25185.80545508  .00000461  00000-0  13543-3 0  9995
2 41180  47.0003 112.9519 0000458 159.8324 200.2580 14.58163929508296
Epoch: 2025-07-04T19:19Z
TLE epoch observation values (Epoch: 2025-07-04T19:19:51.318Z)
Latitude
-0.00001°
Longitude
-100.06451°
Altitude
699.628 km
Speed
7.508 km/s
True Right ascension
07h 31m 48s
True Declination
0° 00' 00"
Sunlit
Object was in daylight at epoch
Visualization orbit readout
Latitude
-0.38933°
Longitude
75.92564°
Altitude
699.061 km
Speed
7.508 km/s
Apparent Right ascension
18h 31m 36s
Apparent Declination
-19° 27' 53"
Sunlit
Object is in full shadow
Visualization observer readout
Local Sidereal Time
05:27:21
Azimuth
321.316° NNW
Elevation
-65.332°
Doppler factor
1
Orbital elements
Apogee altitude
700.668 km
Perigee altitude
700.019 km
Semi-major axis
7,078.48 km
Eccentricity
0.00005
Inclination
47.0003°
RAAN
112.9519°
Arg. of periapsis
159.8324°
True anomaly
Unknown
Mean anomaly
200.258°
Eccentric anomaly
Unknown
Mean motion
3.64446 °/min
Orbital period
98.78 mins
BSTAR
0.00013543
Loading maneuver chart data...
Loading SW <> Apogee altitude chart data...
Loading historical data...
Loading historical data...
Loading historical data...
Loading historical data...
Loading historical data...
Loading historical data...
Loading historical data...

ORBCOMM FM 119 Visibility forecast

Observer location: undefined°, undefined°

Span
Click to sort rows by Start time (UTC) header in descending order
Start Az.
Max El. time (UTC)
Max El. Az.
Max El.
End time (UTC)
End Az.
9 mins2025-07-05 21:48:58.213Z216.752° SW2025-07-05 21:52:58.213Z156.55° SSE37.314°2025-07-05 21:57:58.213Z69.538° E
7 mins2025-07-05 23:33:58.213Z274.565° WNW2025-07-05 23:36:58.213Z348.343° N38.054°2025-07-05 23:40:58.213Z55.949° ENE
7 mins2025-07-06 01:17:58.213Z304.837° NW2025-07-06 01:20:58.213Z0.104° NNE30.597°2025-07-06 01:24:58.213Z65.485° ENE
8 mins2025-07-06 03:01:58.213Z306.876° NW2025-07-06 03:04:58.213Z9.496° NNE40.876°2025-07-06 03:09:58.213Z102.233° ESE
7 mins2025-07-06 04:45:58.213Z272.8° WNW2025-07-06 04:48:58.213Z207.149° SW31.475°2025-07-06 04:52:58.213Z152.461° SSE
|